Location: Newark
(15.7058°N, 0.4100°E)
Time: 20:12:53
(UTC+00:00)

Hubble Space Telescope - Visible Passes

Search period start: 07 December 2019 00:00
Search period end: 17 December 2019 00:00
Orbit: 536 x 540 km, 28.5° (Epoch: 06 December)

Date Brightness Start Highest point End Pass type
(mag) Time Alt. Az. Time Alt. Az. Time Alt. Az.
09 Dec 3.7 04:25:11 10° S 04:26:45 12° SSE 04:28:18 10° SE visible
10 Dec 3.3 04:14:24 13° S 04:16:07 16° SSE 04:18:46 10° ESE visible
11 Dec 2.9 04:05:37 22° SSE 04:05:37 22° SSE 04:08:46 10° E visible
11 Dec 0.8 05:42:25 10° WSW 05:46:33 68° NNW 05:50:40 10° ENE visible
12 Dec 3.2 03:56:40 21° ESE 03:56:40 21° ESE 03:58:32 10° E visible
12 Dec 1.0 05:32:04 11° W 05:35:59 51° NNW 05:40:00 10° NE visible
13 Dec 3.7 03:47:32 14° E 03:47:32 14° E 03:48:10 10° E visible
13 Dec 1.3 05:22:55 19° W 05:25:26 39° NNW 05:29:20 10° NE visible
14 Dec 1.7 05:13:35 25° NW 05:14:54 31° NNW 05:18:37 10° NE visible
15 Dec 1.9 05:04:06 26° NNW 05:04:24 26° NNW 05:07:53 10° NE visible
16 Dec 2.4 04:54:29 21° N 04:54:29 21° N 04:57:09 10° NE visible
